Regional Weather Roundup
Issued by NWS

Home | Current Version | Previous Version | Text Only | Print | Product List | Glossary On
Versions: 1 2 3 4 5 6 7 8 9 10 11 12 13 14 15 16 17 18 19 20 21 22 23 24 25 26 27 28 29 30 31 32 33 34 35 36 37 38 39 40 41 42 43 44 45 46 47 48 49 50
333
ASUS42 KKEY 201610
RWRKEY

FLORIDA REGIONAL WEATHER ROUNDUP FOR THE FLORIDA KEYS
NATIONAL WEATHER SERVICE KEY WEST FLORIDA
1100 AM EST MON FEB 20 2017

...SOUTH FLORIDA AND THE KEYS...

CITY           SKY/WX    TMP DP  RH WIND       PRES   REMARKS
FORT MYERS     SUNNY     79  62  56 E7        30.14S
SW REGIONAL AP SUNNY     79  58  48 E9        30.14F
NAPLES         MOSUNNY   81  61  50 E13       30.13S
MIAMI          MOSUNNY   77  62  59 E9G21     30.14S
WEST KENDALL   MOSUNNY   80  61  52 E10       30.14R
HOMESTEAD      SUNNY     78  66  65 E10       30.13S
MARATHON       SUNNY     81  67  62 E12       30.13R
BOCA CHICA NAS SUNNY     77  68  73 E16       30.13R
KEY WEST INTL  MOSUNNY   80  69  69 E14G21    30.13R

...INTERNATIONAL WEATHER...

CITY           SKY/WX    TMP DP  RH WIND       PRES   REMARKS
NASSAU BAHAMAS MOSUNNY   82  50  32 N9        30.15R
CANCUN MEXICO  PTSUNNY   82  70  65 SE21      30.06R
COZUMEL MEXICO PTSUNNY   82  70  65 SE18      30.03R

ADJACENT COASTAL WATERS...

STATION/POSITION TIME  SKY/WX   TEMP    WIND        PRES    WAVE
                                AIR SEA DIR/SP/G            HT/PER
                 (UTC)          (F)     (DEG/KT/KT) (MB)    (FT/S)
PULASKI SHOAL LI 1600            73      90/ 10/ 11 1020.1S
SAND KEY         1550            75      90/ 15/ 19 1020.5R
LONG KEY         1500            76 76   80/ 13/ 16 1020.3R
MOLASSES REEF    NOT AVBL
FOWEY ROCKS      1500            75 76   70/ 12/ 13 1021.1R
Buoy 42097       1530                                 N/A     2/ 7

$$




USA.gov is the U.S. government's official web portal to all federal, state and local government web resources and services.